Terminal Aerodrome Forecast
Issued by NWS Wilmington, NC

Home | Current Version | Previous Version | Text Only | Print | Product List | Glossary On
Versions: 1 2 3 4 5 6 7 8 9 10 11 12 13 14 15 16 17 18
000
FTUS42 KILM 192300
TAFLBT
TAF
KLBT 192334Z 2000/2024 07005KT P6SM SCT100
      TEMPO 2009/2012 4SM BR
     FM201400 05010G18KT P6SM SCT040 SCT100 BKN250
     FM202200 04005KT P6SM VCSH SCT040 BKN100=

USA.gov is the U.S. government's official web portal to all federal, state and local government web resources and services.